Flag for Canada Weather past 2 weeks in Stonewall, Manitoba, Canada

Now
61 °F

Sunny.


Feels Like: 61 °F
Forecast: 48 / 63 °F
Wind: 9 mph from North

Location: Winnipeg Int. Airportman.

Current Time: Jul 5, 2015 at 10:31:01 PM

Latest Report: Jul 5, 2015 at 10:00 PM


Visibility: 1 mi

Pressure: 29.90 "Hg

Humidity: 83%

Dew point: 55 °F

Location of StonewallLocation

Historic Weather in Stonewall — Graph

°F

Stonewall temperature yesterday

Maximum temperature yesterday: 82 °F (at 3:00 PM)
Minimum temperature yesterday: 61 °F (at 6:00 AM)
Average temperature yesterday: 71 °F

Past Weeks' High & Low Weather Summary

 TemperatureHumidityPressure
High82 °F (Jun 28, 5:00 PM)100% (Jun 22, 2:00 AM)30.11 "Hg (Jun 22, 2:00 AM)
Low52 °F (Jun 25, 6:00 AM)42% (Jun 26, 4:00 PM)29.63 "Hg (Jul 4, 6:00 PM)
Average67 °F78%29.90 "Hg
* Reported Jun 20 9:00 PM — Jul 5 9:00 PM, Stonewall, Weather by CustomWeather, © 2015

Note: Actual official high and low records may vary slightly from our data, if they occured in-between our weather recording intervals... More about our weather records

Advertising

Stonewall weather history for previous 24 hours

 ConditionsComfort  
Time TempWeatherWind HumidityBarometerVisibility
9:00 PM
Sun, Jul 5
63 °FPartly sunny.7 mph83%29.88 "Hg1 mi
8:00 PM66 °FSunny.9 mph83%29.86 "Hg2 mi
7:00 PM68 °FSunny.9 mph73%29.84 "Hg2 mi
6:00 PM70 °FSunny.12 mph73%29.82 "Hg2 mi
5:00 PM70 °FOvercast.12 mph73%29.81 "Hg2 mi
4:00 PM70 °FMostly cloudy.9 mph73%29.80 "Hg3 mi
3:00 PM68 °FMostly cloudy.7 mph88%29.80 "Hg2 mi
2:00 PM66 °FMore clouds than sun.8 mph94%29.80 "Hg2 mi
1:00 PM66 °FMostly cloudy.7 mph94%29.79 "Hg1 mi
12:00 PM66 °FSprinkles. Low clouds.3 mph94%29.79 "Hg1 mi
11:00 AM66 °FLow clouds.6 mph94%29.78 "Hg2 mi
10:00 AM66 °FFog.7 mph94%29.78 "Hg4 mi
9:00 AM66 °FFog.8 mph94%29.79 "Hg3 mi
8:00 AM64 °FFog.5 mph100%29.80 "Hg3 mi
7:00 AM63 °FFog.2 mph100%29.79 "Hg5 mi
6:46 AM63 °FFog.No wind100%29.80 "Hg5 mi
6:00 AM63 °FFog.3 mph100%29.79 "Hg5 mi
5:00 AM63 °FFog.3 mph100%29.78 "Hg3 mi
4:00 AM61 °FFog.2 mph100%29.77 "Hg6 mi
3:00 AM61 °FFog.2 mph100%29.75 "Hg10 mi
2:00 AM61 °FPassing clouds.2 mph100%29.76 "Hg12 mi
1:00 AM64 °FMostly cloudy.8 mph100%29.77 "Hg12 mi
12:00 AM64 °FPassing clouds.6 mph100%29.74 "Hg12 mi
11:00 PM
Sat, Jul 4
64 °FSprinkles. Passing clouds.3 mph100%29.72 "Hg10 mi
10:00 PM64 °FSprinkles. Partly sunny.8 mph100%29.75 "Hg12 mi
Weather by CustomWeather, © 2015

See weather overviewHow to use our weather pages